Regional Weather Roundup
Issued by NWS

Home | Current Version | Previous Version | Graphics & Text | Print | Product List | Glossary On
Versions: 1 2 3 4 5 6 7 8 9 10 11 12 13 14 15 16 17 18 19 20 21 22 23 24 25 26 27 28 29 30 31 32 33 34 35 36 37 38 39 40 41 42 43 44 45 46 47 48 49 50
000
ASUS45 KSLC 101610
RWRUT

UTAH REGIONAL WEATHER ROUNDUP
NATIONAL WEATHER SERVICE SALT LAKE CITY UT
1000 AM MDT THU JUL 10 2014

UTZ001>011-023>025-101700-

NORTHERN UTAH

CITY           SKY/WX    TMP DP  RH WIND       PRES   REMARKS
HILL AFB       PTSUNNY   77  56  48 SE3       30.06S
LOGAN          PTSUNNY   76  56  49 N5        30.05R
OGDEN          PTSUNNY   81  54  39 S10       30.03S
PROVO AIRPORT  PTSUNNY   79  57  47 S6        30.08R
SALT LAKE CITY PTSUNNY   77  57  50 SE7       30.02R
VERNAL         MOSUNNY   76  51  41 S3        30.12S
WENDOVER       MOSUNNY   82  46  28 NE7       30.02F
HEBER CITY     PTSUNNY   72  54  53 NW3       30.13S

$$

UTZ012>022-026-027-101700-

SOUTHERN UTAH

CITY           SKY/WX    TMP DP  RH WIND       PRES   REMARKS
BRYCE CANYON   MOSUNNY   70  50  49 S6        30.31S
CEDAR CITY     CLOUDY    73  54  51 SW7       30.16R
MILFORD        PTSUNNY   80  56  43 S21       30.10R
MOAB/CYNLANDS  SUNNY     80  56  43 E5        30.08S
PRICE          MOSUNNY   74  55  51 SW5       30.18R
ST GEORGE      NOT AVBL

$$

REGIONAL REPORTS     COLORADO/ARIZONA

CITY           SKY/WX    TMP DP  RH WIND       PRES   REMARKS
CRAIG, CO      MOSUNNY   71  48  43 N8        30.20F
GRAND JUNCTION SUNNY     80  48  32 SW6       30.11F
RIFLE          SUNNY     74  43  32 NW3       30.17F
MONTROSE       SUNNY     80  48  32 VRB3      30.19F
CORTEZ         SUNNY     75  53  46 SW8       30.20S
PAGE, AZ       MOSUNNY   84  51  31 VRB3      30.09S
GRAND CANYON   MOSUNNY   72  57  59 SW10      30.28R
KINGMAN        MOSUNNY   81  63  54 SW6       30.05R
FLAGSTAFF      MOSUNNY   69  53  56 CALM      30.30S

$$

REGIONAL REPORTS    NEVADA/IDAHO/WYOMING

CITY           SKY/WX    TMP DP  RH WIND       PRES   REMARKS
LAS VEGAS, NV  CLOUDY    88  59  37 SE7       29.89R
ELY            MOSUNNY   74  49  41 SE5       30.18S
ELKO           SUNNY     75  54  47 CALM      30.10S
POCATELLO, ID  MOSUNNY   80  49  33 W10       30.04S
BURLEY         SUNNY     78  52  40 W7        30.01S
EVANSTON, WY   CLOUDY    70  50  49 SW15      30.22S
ROCK SPRINGS   PTSUNNY   75  46  35 SW6       30.17S

$$


USA.gov is the U.S. government's official web portal to all federal, state and local government web resources and services.